Time,TemperatureF,DewpointF,PressureIn,WindDirection,WindDirectionDegrees,WindSpeedMPH,WindSpeedGustMPH,Humidity,HourlyPrecipIn,Conditions,Clouds,dailyrainin,SolarRadiationWatts/m^2,SoftwareType,DateUTC
2013-08-14 00:15:00,64.5,33.2,30.18,SSE,148,1.0,3.0,31,0.00,CLR,SKC,0.00,0.0,WeatherDisplay:10.37,2013-08-14 06:15:00,
2013-08-14 00:45:00,64.1,32.0,30.18,SE,143,0.0,0.0,30,0.00,CLR,SKC,0.00,0.0,WeatherDisplay:10.37,2013-08-14 06:45:00,
2013-08-14 01:15:00,61.7,30.7,30.19,East,85,0.0,2.0,31,0.00,CLR,SKC,0.00,0.0,WeatherDisplay:10.37,2013-08-14 07:15:00,
2013-08-14 01:45:00,61.8,28.3,30.19,SE,128,0.0,2.0,28,0.00,CLR,SKC,0.00,0.0,WeatherDisplay:10.37,2013-08-14 07:45:00,
2013-08-14 02:15:00,61.5,28.1,30.19,ESE,119,0.0,2.0,28,0.00,CLR,SKC,0.00,0.0,WeatherDisplay:10.37,2013-08-14 08:15:00,
2013-08-14 02:45:00,58.6,28.8,30.19,ESE,119,2.0,3.0,32,0.00,CLR,SKC,0.00,0.0,WeatherDisplay:10.37,2013-08-14 08:45:00,
2013-08-14 03:15:00,62.4,29.7,30.20,East,88,1.0,5.0,29,0.00,CLR,SKC,0.00,0.0,WeatherDisplay:10.37,2013-08-14 09:15:00,
2013-08-14 03:45:00,65.0,30.2,30.21,ENE,72,0.0,5.0,27,0.00,CLR,SKC,0.00,0.0,WeatherDisplay:10.37,2013-08-14 09:45:00,
2013-08-14 04:15:00,62.3,29.6,30.22,ENE,75,2.0,4.0,29,0.00,CLR,SKC,0.00,0.0,WeatherDisplay:10.37,2013-08-14 10:15:00,
2013-08-14 04:45:00,62.5,31.5,30.22,East,99,6.0,12.0,31,0.00,CLR,SKC,0.00,0.0,WeatherDisplay:10.37,2013-08-14 10:45:00,
2013-08-14 05:15:00,63.1,32.7,30.22,East,89,1.0,6.0,32,0.00,CLR,SKC,0.00,0.0,WeatherDisplay:10.37,2013-08-14 11:15:00,
2013-08-14 05:45:00,57.0,34.1,30.21,WNW,302,0.0,1.0,42,0.00,CLR,SKC,0.00,0.0,WeatherDisplay:10.37,2013-08-14 11:45:00,
2013-08-14 06:15:00,55.9,33.1,30.22,NNE,31,0.0,1.0,42,0.00,OVC,SKC,0.00,0.0,WeatherDisplay:10.37,2013-08-14 12:15:00,
2013-08-14 06:45:00,54.6,33.1,30.23,ENE,74,0.0,1.0,44,0.00,CLR,SKC,0.00,7.0,WeatherDisplay:10.37,2013-08-14 12:45:00,
2013-08-14 07:15:00,58.2,34.6,30.24,East,80,1.0,3.0,41,0.00,SCT,SKC,0.00,42.0,WeatherDisplay:10.37,2013-08-14 13:15:00,
2013-08-14 07:45:00,62.9,36.2,30.24,NE,42,1.0,9.0,37,0.00,SCT,SKC,0.00,81.0,WeatherDisplay:10.37,2013-08-14 13:45:00,
2013-08-14 08:15:00,64.7,37.1,30.24,NNE,24,1.0,5.0,36,0.00,CLR,SKC,0.00,269.0,WeatherDisplay:10.37,2013-08-14 14:15:00,
2013-08-14 08:45:00,66.7,38.1,30.24,North,9,3.0,7.0,35,0.00,CLR,SKC,0.00,360.0,WeatherDisplay:10.37,2013-08-14 14:45:00,
2013-08-14 09:15:00,69.9,38.7,30.23,NNW,345,2.0,5.0,32,0.00,CLR,SKC,0.00,455.0,WeatherDisplay:10.37,2013-08-14 15:15:00,
2013-08-14 09:45:00,71.4,43.8,30.23,WNW,295,3.0,5.0,37,0.00,CLR,SKC,0.00,545.0,WeatherDisplay:10.37,2013-08-14 15:45:00,
2013-08-14 10:15:00,74.5,42.7,30.22,WNW,300,1.0,4.0,32,0.00,CLR,SKC,0.00,635.0,WeatherDisplay:10.37,2013-08-14 16:15:00,
2013-08-14 10:45:00,77.9,42.2,30.21,West,277,1.0,3.0,28,0.00,CLR,SKC,0.00,717.0,WeatherDisplay:10.37,2013-08-14 16:45:00,
2013-08-14 11:15:00,81.4,37.7,30.20,WNW,294,0.0,4.0,21,0.00,CLR,SKC,0.00,793.0,WeatherDisplay:10.37,2013-08-14 17:15:00,
2013-08-14 11:45:00,82.6,38.7,30.19,WNW,287,2.0,5.0,21,0.00,CLR,SKC,0.00,853.0,WeatherDisplay:10.37,2013-08-14 17:45:00,
2013-08-14 12:45:00,84.7,31.9,30.17,SE,134,1.0,3.0,15,0.00,CLR,SKC,0.00,935.0,WeatherDisplay:10.37,2013-08-14 18:45:00,
2013-08-14 13:45:00,85.9,32.9,30.14,SE,125,1.0,7.0,15,0.00,CLR,SKC,0.00,1065.0,WeatherDisplay:10.37,2013-08-14 19:45:00,
2013-08-14 14:15:00,84.5,33.4,30.13,SW,224,3.0,6.0,16,0.00,BKN,SKC,0.00,197.0,WeatherDisplay:10.37,2013-08-14 20:15:00,
2013-08-14 14:45:00,86.7,33.5,30.12,East,84,2.0,9.0,15,0.00,CLR,SKC,0.00,921.0,WeatherDisplay:10.37,2013-08-14 20:45:00,
2013-08-14 15:15:00,86.1,29.5,30.11,ESE,105,2.0,9.0,13,0.00,CLR,SKC,0.00,877.0,WeatherDisplay:10.37,2013-08-14 21:15:00,
2013-08-14 15:45:00,87.8,32.6,30.10,WSW,242,2.0,9.0,14,0.00,SCT,SKC,0.00,195.0,WeatherDisplay:10.37,2013-08-14 21:45:00,
2013-08-14 16:15:00,85.6,34.2,30.09,SW,230,3.0,8.0,16,0.00,BKN,SKC,0.00,211.0,WeatherDisplay:10.37,2013-08-14 22:15:00,
2013-08-14 16:45:00,84.8,33.6,30.07,NW,311,5.0,8.0,16,0.00,BKN,SKC,0.00,125.0,WeatherDisplay:10.37,2013-08-14 22:45:00,
2013-08-14 17:15:00,82.6,37.5,30.07,NW,321,1.0,5.0,20,0.00,BKN,SKC,0.00,181.0,WeatherDisplay:10.37,2013-08-14 23:15:00,
2013-08-14 17:45:00,84.1,36.0,30.07,NNE,15,0.0,6.0,18,0.00,BKN,SKC,0.00,244.0,WeatherDisplay:10.37,2013-08-14 23:45:00,
2013-08-14 18:15:00,83.0,37.7,30.06,WNW,300,0.0,0.0,20,0.00,BKN,SKC,0.00,77.0,WeatherDisplay:10.37,2013-08-15 00:15:00,
2013-08-14 19:15:00,85.5,29.0,30.06,SE,140,5.0,13.0,13,0.00,CLR,SKC,0.00,192.0,WeatherDisplay:10.37,2013-08-15 01:15:00,
2013-08-14 19:45:00,84.7,31.9,30.06,SW,230,0.0,2.0,15,0.00,SCT,SKC,0.00,46.0,WeatherDisplay:10.37,2013-08-15 01:45:00,
2013-08-14 20:15:00,83.0,30.6,30.06,South,184,1.0,3.0,15,0.00,CLR,SKC,0.00,12.0,WeatherDisplay:10.37,2013-08-15 02:15:00,
2013-08-14 20:45:00,78.1,32.5,30.07,East,85,0.0,2.0,19,0.00,OVC,SKC,0.00,0.0,WeatherDisplay:10.37,2013-08-15 02:45:00,
2013-08-14 21:15:00,73.1,34.2,30.09,WNW,290,0.0,1.0,24,0.00,CLR,SKC,0.00,0.0,WeatherDisplay:10.37,2013-08-15 03:15:00,
2013-08-14 21:45:00,73.3,32.1,30.10,ENE,74,1.0,3.0,22,0.00,CLR,SKC,0.00,0.0,WeatherDisplay:10.37,2013-08-15 03:45:00,
2013-08-14 22:15:00,72.7,31.6,30.11,SE,130,1.0,4.0,22,0.00,CLR,SKC,0.00,0.0,WeatherDisplay:10.37,2013-08-15 04:15:00,
2013-08-14 22:45:00,70.2,31.7,30.12,SE,144,0.0,2.0,24,0.00,CLR,SKC,0.00,0.0,WeatherDisplay:10.37,2013-08-15 04:45:00,
2013-08-14 23:15:00,67.7,31.5,30.13,SE,142,0.0,1.0,26,0.00,CLR,SKC,0.00,0.0,WeatherDisplay:10.37,2013-08-15 05:15:00,
2013-08-14 23:45:00,64.9,32.7,30.13,SE,142,0.0,2.0,30,0.00,CLR,SKC,0.00,0.0,WeatherDisplay:10.37,2013-08-15 05:45:00,